STARLINK-32477, 62038

Orbit data source: Space-Track

STARLINK-32477, 62038 is a payload satellite owned by SpaceX/Seattle (US) in LEO that was launched on Thu, 21 Nov 2024 UTC via an FALCON 9 launch vehicle from the Air Force Eastern Test Range (AFETR). Payload-class satellites include a variety of spacecraft equipped with specific instruments for various scientific and technological missions. These include communications satellites like Starlink; space stations such as the ISS; scientific satellites like the Hubble; Earth observation satellites from companies like Planet Labs, Umbra, and HawkEye 360; GPS; miniature CubeSats for education and research; and military/defense satellites.

Loading next visibility...
Identifier
62038, 2024-216G
Orbit
LEO
Last TLE update
1 day ago
Origin
Manufacturer
SpaceX/Seattle
Mission
Operational Commercial Communications
Bus & Motor
STARLINK V2M, Unknown motor
Mass
730 kg wet, ~700 kg dry
Launch date (UTC)
2024-11-21 (8 months ago)
Launch vehicle
FALCON 9
Launch site
Air Force Eastern Test Range (AFETR)
Object type
Payload
Rocket body
Debris
Shape & HBR
Box + 2 Pan, 29 m
Radar Cross Section
36.964 m², Large (>1 m²)

Expand to show TLE details & history

TLE from 1 day ago
0 STARLINK-32477
1 62038U 24216G   25189.29706057  .00022366  00000-0  62368-3 0  9992
2 62038  42.9985 196.1264 0001371 282.2735  77.7966 15.36338183 35346
Epoch: 2025-07-08T07:07Z
TLE epoch observation values (Epoch: 2025-07-08T07:07:46.033Z)
Latitude
-0.00003°
Longitude
162.69049°
Altitude
456.525 km
Speed
7.641 km/s
True Right ascension
13h 04m 30s
True Declination
0° 00' 00"
Sunlit
Object was in daylight at epoch
Visualization orbit readout
Latitude
27.08027°
Longitude
-56.08049°
Altitude
457.758 km
Speed
7.642 km/s
Apparent Right ascension
01h 58m 39s
Apparent Declination
-11° 58' 54"
Sunlit
Object is in partial shadow
Visualization observer readout
Local Sidereal Time
19:17:25
Azimuth
92.788° ESE
Elevation
-15.516°
Doppler factor
1
Orbital elements
Apogee altitude
459.839 km
Perigee altitude
457.964 km
Semi-major axis
6,837.038 km
Eccentricity
0.00014
Inclination
42.9985°
RAAN
196.1264°
Arg. of periapsis
282.2735°
True anomaly
Unknown
Mean anomaly
77.7966°
Eccentric anomaly
Unknown
Mean motion
3.8392 °/min
Orbital period
93.77 mins
BSTAR
0.00062368
Loading maneuver chart data...
Loading SW <> Apogee altitude chart data...
Loading historical data...
Loading historical data...
Loading historical data...
Loading historical data...
Loading historical data...
Loading historical data...
Loading historical data...

STARLINK-32477 Visibility forecast

Observer location: undefined°, undefined°

Span
Click to sort rows by Start time (UTC) header in descending order
Start Az.
Max El. time (UTC)
Max El. Az.
Max El.
End time (UTC)
End Az.
6 mins2025-07-09 08:31:58.334Z285.44° WNW2025-07-09 08:34:58.334Z223.391° SW43.505°2025-07-09 08:37:58.334Z118.467° SE
4 mins2025-07-10 03:01:58.334Z191.967° SSW2025-07-10 03:03:58.334Z135.53° SSE25.457°2025-07-10 03:05:58.334Z93.994° ESE
5 mins2025-07-10 04:39:58.334Z263.541° W2025-07-10 04:41:58.334Z22.767° NE43.349°2025-07-10 04:44:58.334Z70.264° E
5 mins2025-07-10 06:17:58.334Z291.704° WNW2025-07-10 06:19:58.334Z339.352° N36.59°2025-07-10 06:22:58.334Z75.382° E
|